RAVAN

Last updated on Sun Dec 14 2025 00:03:50 GMT+0000 (Coordinated Universal Time)

1 41849U 16067B 25347.17482374 .00042910 00000+0 10947-2 0 9991 2 41849 98.0166 212.3566 0006217 312.3391 47.7326 15.39372661498947
UTC large
Height (km)
Speed (km/s)
/
Latitude / Longitude
Inclination (degrees)
Orbital Period (minutes)
Azimuth
Elevation
Range (km)
Doppler Factor

Next 0 passes for location: London (51.5072 / 0.1276)

Sorry there are no passes over London.